TimePST,TemperatureF,Dew PointF,Humidity,Sea Level PressureIn,VisibilityMPH,Wind Direction,Wind SpeedMPH,Gust SpeedMPH,PrecipitationIn,Events,Conditions,WindDirDegrees,DateUTC
12:53 AM,23.0,17.1,78,29.96,-9999.0,SW,4.6,-,N/A,,Unknown,230,2013-02-10 08:53:00
1:53 AM,24.1,18.0,77,29.95,-9999.0,Variable,4.6,-,N/A,,Unknown,0,2013-02-10 09:53:00
2:53 AM,24.1,17.1,75,29.93,-9999.0,NW,6.9,-,N/A,,Unknown,320,2013-02-10 10:53:00
3:53 AM,24.1,18.0,77,29.93,-9999.0,NW,10.4,-,N/A,,Unknown,310,2013-02-10 11:53:00
4:53 AM,24.1,17.1,75,29.92,-9999.0,NW,15.0,-,N/A,,Unknown,310,2013-02-10 12:53:00
5:53 AM,24.1,19.0,81,29.95,-9999.0,North,3.5,-,N/A,,Unknown,350,2013-02-10 13:53:00
6:53 AM,24.1,17.1,75,29.96,-9999.0,North,15.0,24.2,N/A,,Unknown,10,2013-02-10 14:53:00
7:53 AM,23.0,18.0,81,29.98,-9999.0,NNE,10.4,-,N/A,,Unknown,20,2013-02-10 15:53:00
8:53 AM,25.0,18.0,75,29.99,-9999.0,North,9.2,-,N/A,,Unknown,10,2013-02-10 16:53:00
9:53 AM,26.1,18.0,71,29.99,-9999.0,North,10.4,-,N/A,,Unknown,360,2013-02-10 17:53:00
10:53 AM,26.1,18.0,71,30.01,-9999.0,NNE,11.5,-,N/A,,Unknown,20,2013-02-10 18:53:00
12:53 PM,28.0,17.1,63,29.99,-9999.0,North,16.1,-,N/A,,Unknown,10,2013-02-10 20:53:00
2:53 PM,26.1,16.0,66,30.00,-9999.0,North,10.4,-,N/A,,Unknown,360,2013-02-10 22:53:00
3:53 PM,25.0,15.1,66,30.01,-9999.0,NNE,10.4,-,N/A,,Unknown,20,2013-02-10 23:53:00
4:53 PM,21.9,14.0,72,30.03,-9999.0,North,9.2,-,N/A,,Unknown,360,2013-02-11 00:53:00
5:53 PM,19.9,14.0,78,30.06,-9999.0,NE,4.6,-,N/A,,Unknown,50,2013-02-11 01:53:00
6:53 PM,19.0,12.9,77,30.08,-9999.0,Calm,Calm,-,N/A,,Unknown,0,2013-02-11 02:53:00
7:53 PM,17.1,12.9,84,30.10,-9999.0,Calm,Calm,-,N/A,,Unknown,0,2013-02-11 03:53:00
8:53 PM,16.0,10.9,81,30.11,-9999.0,Calm,Calm,-,N/A,,Unknown,0,2013-02-11 04:53:00
9:53 PM,12.9,10.0,88,30.11,-9999.0,WSW,4.6,-,N/A,,Unknown,250,2013-02-11 05:53:00
10:53 PM,5.0,1.0,84,30.17,-9999.0,SE,4.6,-,N/A,,Unknown,140,2013-02-11 06:53:00
11:00 PM,-9999,-9999,N/A,-9999,-9999.0,North,-9999.0,-,N/A,,Unknown,0,2013-02-11 07:00:00
11:53 PM,1.9,-2.9,80,30.19,-9999.0,WSW,4.6,-,N/A,,Unknown,250,2013-02-11 07:53:00